F0657D65 Weather Reports


time (UTC)temp
C
wind
direction
speed
KPH
gust
KPH
rain 1hr
cm
rain 24hr
cm
rain mn
cm
humidity
%
barometer
mb
20260506153003 11 355 1.6 16.1 0.03 0.18 0.10 85 1012.1
20260506151503 11 27 3.2 14.5 0.03 0.18 0.10 84 1012.1
20260506150002 12 284 1.6 16.1 0.03 0.18 0.10 82 1011.9
20260506144501 12 151 3.2 14.5 0.03 0.18 0.10 81 1012.0
20260506143108 12 288 3.2 9.7 0.00 0.15 0.08 82 1012.0
20260506141600 12 308 3.2 12.9 0.00 0.15 0.08 79 1011.8
20260506134556 12 275 1.6 14.5 0.00 0.15 0.08 80 1011.8
20260506133056 12 301 3.2 16.1 0.00 0.15 0.08 81 1012.0
20260506131554 12 161 1.6 9.7 0.00 0.15 0.08 81 1011.9
20260506130053 12 264 1.6 8.0 0.00 0.15 0.08 80 1011.7
20260506124553 12 42 1.6 6.4 0.00 0.15 0.08 83 1011.6
20260506123052 11 339 1.6 8.0 0.00 0.15 0.08 82 1011.6
20260506121552 11 5 1.6 8.0 0.00 0.15 0.08 80 1011.5
20260506120058 12 240 1.6 12.9 0.00 0.15 0.08 81 1011.3
20260506114558 12 19 1.6 17.7 0.00 0.15 0.08 81 1011.3
20260506113050 12 36 1.6 6.4 0.00 0.15 0.08 83 1011.4
20260506111550 12 342 1.6 8.0 0.00 0.15 0.08 82 1011.3
20260506110056 12 108 0.0 3.2 0.00 0.15 0.08 81 1011.3
20260506104548 12 115 1.6 4.8 0.00 0.15 0.08 81 1011.5
20260506103047 12 44 3.2 8.0 0.00 0.15 0.08 81 1011.5
20260506101545 12 319 1.6 14.5 0.00 0.15 0.08 81 1011.7
20260506100046 11 346 0.0 6.4 0.00 0.15 0.08 85 1011.7
20260506094559 11 81 0.0 6.4 0.00 0.15 0.08 85 1011.7
20260506093043 11 355 1.6 6.4 0.00 0.15 0.08 85 1011.5
20260506091539 11 304 0.0 4.8 0.00 0.15 0.08 86 1011.5
20260506090037 11 284 1.6 8.0 0.00 0.15 0.08 88 1011.4
20260506084537 11 22 1.6 8.0 0.00 0.15 0.08 86 1011.4
20260506083033 11 86 1.6 8.0 0.00 0.15 0.08 89 1011.2
20260506081531 11 348 0.0 4.8 0.00 0.15 0.08 91 1011.1
20260506073019 9 33 0.0 6.4 0.00 0.15 0.08 93 1010.9
20260506071516 8 46 1.6 6.4 0.00 0.15 0.08 94 1010.6
20260506061508 8 24 1.6 9.7 0.00 0.15 0.08 96 1010.3
20260506044550 7 150 0.0 4.8 0.00 0.15 0.08 97 1009.9
20260506043042 7 196 0.0 4.8 0.00 0.15 0.08 97 1009.8
20260506041541 7 38 0.0 4.8 0.00 0.15 0.08 97 1009.9
20260506040055 7 18 0.0 4.8 0.00 0.15 0.08 97 1009.9
20260506034538 8 21 0.0 4.8 0.00 0.15 0.08 97 1009.9
20260506033036 8 300 0.0 8.0 0.00 0.15 0.08 97 1009.8
20260506031551 8 239 0.0 4.8 0.00 0.15 0.08 97 1009.9
20260506030034 8 77 0.0 4.8 0.03 0.15 0.08 97 1009.8
20260506024533 8 43 0.0 4.8 0.03 0.15 0.08 97 1009.7
20260506023034 8 73 0.0 3.2 0.03 0.15 0.08 97 1009.7
20260506021533 8 26 0.0 3.2 0.03 0.15 0.08 97 1009.7
20260506020032 8 346 0.0 14.5 0.00 0.15 0.05 97 1009.6
20260506014533 8 11 0.0 0.0 0.00 0.15 0.05 97 1009.7
20260506013030 8 308 0.0 3.2 0.00 0.15 0.05 97 1009.7
20260506011530 8 323 0.0 6.4 0.00 0.15 0.05 97 1009.6
20260506010029 8 70 0.0 3.2 0.00 0.15 0.05 97 1009.5
20260506004528 8 302 0.0 4.8 0.00 0.15 0.05 97 1009.5
20260506003026 8 50 0.0 3.2 0.03 0.15 0.05 97 1009.6
20260506001525 8 58 0.0 4.8 0.03 0.15 0.05 97 1009.6
20260506000024 8 19 0.0 4.8 0.05 0.15 0.05 97 1009.7
20260505234522 8 37 0.0 6.4 0.05 0.15 0.05 97 1009.7
20260505233021 9 26 0.0 4.8 0.03 0.13 0.05 96 1009.8
20260505231528 9 82 0.0 3.2 0.03 0.13 0.05 96 1009.9
20260505230026 9 14 0.0 4.8 0.03 0.10 0.03 96 1010.0
20260505224515 9 9 0.0 1.6 0.03 0.10 0.03 96 1009.8
20260505223016 10 163 0.0 3.2 0.03 0.10 0.03 96 1009.8
20260505221512 10 45 0.0 3.2 0.05 0.10 0.03 96 1009.6
20260505220010 10 49 0.0 6.4 0.05 0.08 0.08 96 1009.7
20260505214509 10 177 0.0 3.2 0.08 0.08 0.08 96 1009.6
20260505213008 10 273 0.0 3.2 0.08 0.08 0.08 96 1009.7
20260505211507 10 76 0.0 6.4 0.05 0.05 0.05 95 1009.7
20260505210006 11 28 1.6 4.8 0.05 0.05 0.05 95 1009.9
20260505204506 11 107 1.6 4.8 0.00 0.00 0.00 94 1009.8
20260505203006 11 84 0.0 4.8 0.00 0.00 0.00 93 1009.7
20260505201506 11 298 0.0 3.2 0.00 0.00 0.00 94 1009.6
20260505200007 11 5 0.0 4.8 0.00 0.00 0.00 94 1009.4
20260505194506 11 38 0.0 0.0 0.00 0.00 0.00 95 1009.3
20260505193004 11 103 0.0 0.0 0.00 0.00 0.00 94 1009.1
20260505191504 12 103 0.0 1.6 0.00 0.00 0.00 94 1009.0
20260505190003 12 103 0.0 1.6 0.00 0.05 0.00 94 1008.9
20260505184502 12 109 0.0 4.8 0.00 0.05 0.00 94 1008.9
20260505183002 12 71 0.0 4.8 0.00 0.05 0.00 94 1008.9
20260505181502 12 56 0.0 4.8 0.00 0.05 0.00 94 1008.8
20260505180003 12 81 0.0 0.0 0.00 0.08 0.00 93 1008.8
20260505174501 12 81 0.0 1.6 0.00 0.08 0.00 93 1008.8
20260505173100 12 81 0.0 4.8 0.00 0.08 0.00 93 1008.8
20260505171606 12 84 0.0 3.2 0.00 0.08 0.00 93 1008.8
20260505170059 12 84 0.0 1.6 0.00 0.41 0.00 93 1008.9
20260505164620 12 84 0.0 1.6 0.00 0.41 0.00 93 1008.7
20260505163107 12 68 0.0 4.8 0.00 0.41 0.00 93 1008.8
20260505161615 12 74 0.0 3.2 0.00 0.41 0.00 92 1008.8